GFSNE_con_mucape_090.txt.gz
CAPE
395 545 534 431 270 56 58 50 0 0 0 1 11 5 5 1 0 0 0 0 0 0 0 0 0 0 0 0 0 0 0 0 0 0 22 39 56 57
226 170 84 52 44 62 34 2 2 0 0 0 0 7 0 0 0 0 1 0 0 0 0 0 0 0 0 0 0 0 0 0 0 0 0 9 21 26
36 12 0 0 1 44 15 3 4 0 4 22 1 13 6 0 0 8 10 6 2 0 0 0 0 0 0 0 0 0 0 0 0 0 0 1 16 39
0 8 0 1 47 12 5 11 0 4 1 12 12 4 1 0 0 0 1 4 0 0 0 0 0 0 0 0 0 0 0 0 0 0 0 0 0 1
31 0 9 3 41 65 0 7 4 6 12 4 0 0 0 0 0 3 6 2 0 0 0 0 0 0 0 0 0 0 0 0 0 0 0 0 0 0
74 18 81 63 34 26 35 73 37 28 12 0 3 14 0 1 1 4 6 6 1 0 0 0 0 0 0 0 0 0 0 0 0 0 0 0 0 0
99 89 108 98 95 45 31 81 54 1 0 0 12 0 0 0 4 2 2 0 0 0 0 0 0 0 0 0 0 0 0 0 0 0 0 0 0 0
92 94 81 93 106 53 44 44 0 0 6 0 1 1 0 0 2 0 0 0 0 0 0 0 0 0 0 0 0 0 0 0 0 0 0 0 0 0
48 82 116 97 19 73 0 0 1 4 0 0 0 0 0 0 0 0 0 0 0 0 0 0 0 0 0 0 0 0 0 0 0 0 0 0 0 0
36 41 50 45 0 3 6 0 10 3 0 1 0 0 0 0 0 0 0 0 0 0 0 0 0 0 0 0 0 0 0 0 0 0 0 0 0 0
9 57 39 26 0 6 0 0 0 1 1 0 0 0 0 0 0 0 0 0 0 0 0 0 0 0 0 0 0 0 0 0 0 0 0 0 0 2
7 21 0 0 1 0 0 0 0 0 0 0 0 0 0 0 0 0 0 0 0 0 0 0 0 0 0 0 0 0 0 0 0 0 0 0 5 28
4 3 1 1 5 0 0 0 0 0 0 0 0 0 0 0 0 0 0 0 0 0 0 0 0 0 0 0 0 0 0 0 61 45 10 0 10 20
2 2 0 0 0 0 0 0 0 0 0 0 0 0 0 0 0 0 0 0 0 0 0 0 0 0 0 0 0 0 0 0 91 67 69 31 0 0
0 0 0 0 0 0 0 0 0 0 0 0 0 0 0 0 0 0 0 0 0 0 0 0 0 0 0 0 0 0 0 0 28 134 100 72 35 0
0 0 0 0 0 0 0 0 0 0 0 0 0 0 0 0 0 0 0 0 0 0 0 0 0 0 0 0 0 0 0 0 22 90 121 113 58 51
0 0 0 0 0 0 0 0 0 0 0 0 0 0 0 0 0 0 0 0 0 0 0 0 0 0 0 0 0 0 0 0 39 37 141 112 52 43
0 0 0 0 0 0 0 0 0 0 0 0 0 0 0 0 0 0 0 0 0 0 0 0 0 0 0 0 0 0 0 61 87 8 107 104 54 47
0 0 0 0 0 0 0 0 0 0 0 0 0 0 0 0 0 0 0 0 0 0 0 0 0 0 0 0 0 0 0 0 0 45 131 90 47 39
0 0 0 0 0 0 0 0 0 0 0 0 0 0 0 0 0 0 0 0 0 0 0 0 0 0 0 0 0 0 0 0 0 16 108 45 17 0
0 0 0 0 0 0 0 0 0 0 0 0 0 0 0 0 0 0 0 0 0 0 0 0 0 0 0 0 0 0 0 0 0 6 48 49 44 36
0 0 0 0 0 0 0 0 0 0 0 0 0 0 0 0 0 0 0 0 0 0 0 0 0 0 0 0 0 0 0 0 0 0 2 7 46 48
0 0 0 0 0 0 0 0 0 0 0 0 0 0 0 0 0 0 0 0 0 0 0 0 0 0 0 0 0 0 0 0 0 1 0 0 0 0

GFSNE_con_mucape_093.txt.gz
CAPE
536 603 451 400 356 605 559 183 118 37 0 1 0 0 1 1 23 3 14 5 0 0 0 0 0 0 0 0 0 0 0 0 0 0 0 0 0 1
438 413 502 362 212 215 136 86 31 0 0 0 1 3 1 0 11 0 3 1 0 0 0 0 0 0 0 0 0 0 0 0 0 0 0 0 0 0
375 292 209 20 5 6 29 2 0 0 0 10 0 1 0 0 1 1 1 4 0 0 0 4 2 0 0 0 0 0 0 0 0 0 0 0 0 0
285 124 4 4 2 10 17 0 0 4 40 11 10 2 0 2 0 0 1 1 0 0 0 0 5 4 0 0 0 0 0 0 0 0 0 0 0 0
58 17 39 50 50 41 1 2 7 18 39 13 15 10 3 1 0 0 3 0 0 4 1 5 2 0 0 0 0 0 0 0 0 0 0 0 0 0
22 33 61 126 142 8 13 61 32 5 24 43 26 28 8 0 0 4 8 0 0 2 1 1 0 0 0 0 0 0 0 0 0 0 0 0 0 0
59 110 120 197 111 84 72 76 41 67 80 79 34 41 1 0 3 0 0 0 0 1 1 0 0 0 0 0 0 0 0 0 0 0 0 0 0 0
145 141 92 129 67 64 74 39 23 67 73 12 0 0 0 0 0 0 0 0 0 0 0 0 0 0 0 0 0 0 0 0 0 0 0 0 0 0
87 91 85 35 13 10 21 31 28 10 2 11 3 0 0 0 0 0 0 0 0 0 0 0 0 0 0 0 0 0 0 0 0 0 0 0 0 0
81 72 35 19 19 15 14 0 4 2 0 0 0 0 0 0 0 0 0 0 0 0 0 0 0 0 0 0 0 0 0 0 0 0 0 0 0 0
1 23 24 12 11 2 0 0 0 0 0 0 0 0 0 0 0 0 0 0 0 0 0 0 0 0 0 0 0 0 0 0 0 0 0 0 0 0
10 27 11 0 0 1 0 3 5 0 0 0 0 0 0 0 0 0 0 0 0 0 0 0 0 0 0 0 0 0 0 0 0 0 0 0 0 0
25 18 0 0 0 1 0 0 0 0 0 0 0 0 0 0 0 0 0 0 0 0 0 0 0 0 0 0 0 0 0 0 0 0 0 13 24 11
9 2 0 0 0 0 0 0 0 0 0 0 0 0 0 0 0 0 0 0 0 0 0 0 0 0 0 0 0 0 0 0 0 0 0 45 26 17
0 0 0 0 0 0 0 0 0 0 0 0 0 0 0 0 0 0 0 0 0 0 0 0 0 0 0 0 0 0 0 0 0 0 0 42 55 48
0 0 0 0 0 0 0 0 0 0 0 0 0 0 0 0 0 0 0 0 0 0 0 0 0 0 0 0 0 0 0 0 0 0 0 55 42 89
0 0 0 0 0 0 0 0 0 0 0 0 0 0 0 0 0 0 0 0 0 0 0 0 7 34 1 0 0 0 0 0 0 0 0 0 0 48
0 0 0 0 0 0 0 0 0 0 0 0 0 0 0 0 0 0 0 0 0 0 0 0 0 0 0 0 0 0 0 0 60 35 0 0 2 8
0 0 0 0 0 0 0 0 0 0 0 0 0 0 0 0 0 0 0 0 0 0 0 0 0 0 0 0 0 0 0 0 0 0 0 0 0 64
0 0 0 0 0 0 0 0 0 0 0 0 0 0 0 0 0 0 0 0 0 0 0 0 0 0 0 0 0 0 0 0 0 0 0 0 0 0
0 0 0 0 0 0 0 0 0 0 0 0 0 0 0 0 0 0 0 0 0 0 0 0 0 0 0 0 0 0 0 0 0 0 0 0 0 0
0 0 0 0 0 0 0 0 0 0 0 0 0 0 0 0 0 0 0 0 0 0 0 0 0 0 0 0 0 0 0 0 0 0 0 0 1 16
0 0 0 0 0 0 0 0 0 0 0 0 0 0 0 0 0 0 0 0 0 0 0 0 0 0 0 0 0 0 0 0 1 0 0 0 0 0

GFSNE_con_mucape_099.txt.gz
CAPE
50 56 60 63 68 83 67 55 48 0 0 0 0 0 27 47 16 31 33 7 5 17 9 13 11 4 1 11 11 14 8 0 1 18 37 72 58 21
56 76 72 67 67 84 86 85 82 50 0 0 1 7 9 27 0 3 2 6 15 8 12 10 2 11 19 9 2 1 3 1 0 13 7 9 2 0
47 60 51 55 44 63 76 64 46 55 13 24 23 9 8 6 5 10 24 9 6 13 7 5 3 4 6 3 14 0 0 0 0 0 5 5 2 0
26 46 30 36 50 88 84 86 119 143 131 48 21 1 14 17 9 2 13 0 13 22 6 0 5 2 0 4 0 0 0 0 0 0 2 3 0 0
22 44 54 41 44 78 118 114 117 112 75 40 35 17 17 8 5 1 9 3 2 3 0 4 0 0 0 1 1 0 0 0 0 0 0 0 0 0
22 35 30 45 52 69 69 54 49 57 65 36 16 0 1 9 0 0 0 4 1 2 0 1 1 5 7 1 0 0 0 0 0 0 0 0 0 0
68 61 56 63 75 76 86 72 42 37 21 43 18 4 9 10 0 4 0 0 0 0 0 0 1 1 0 0 0 0 0 0 0 0 0 0 0 0
94 95 71 120 85 79 68 43 67 53 51 0 13 3 0 3 2 2 0 0 0 0 0 0 0 0 0 0 0 0 0 0 0 0 0 0 0 0
86 70 37 78 41 101 118 4 0 3 9 0 1 5 6 0 0 0 0 0 0 0 0 0 0 0 0 0 0 0 0 0 0 0 0 0 0 0
23 52 67 80 91 87 34 10 5 0 0 0 0 0 0 0 0 0 0 0 0 0 0 0 0 0 0 0 0 0 0 0 0 0 0 0 0 0
23 50 99 94 52 43 7 5 4 5 2 0 0 0 0 0 0 0 0 0 0 0 0 0 0 0 0 0 0 0 0 0 0 0 0 0 0 0
90 99 68 37 7 9 0 4 6 0 0 0 0 0 0 0 0 0 0 0 0 0 0 0 0 0 0 0 0 0 0 0 0 0 0 2 3 2
87 20 0 0 0 1 0 0 0 0 0 0 0 0 0 0 0 0 0 0 0 0 0 0 0 0 0 0 0 0 0 0 0 0 0 0 0 1
5 0 0 0 0 0 0 0 0 0 0 0 0 0 0 0 0 0 0 0 0 0 0 0 0 0 0 0 0 0 0 0 13 0 0 0 0 0
0 0 0 0 0 0 0 0 0 0 0 0 0 0 0 0 0 0 0 0 0 0 0 0 0 0 0 0 0 0 0 0 0 0 0 0 0 0
0 0 0 0 0 0 0 0 0 0 0 0 0 0 0 0 0 0 0 0 0 0 0 0 0 0 0 0 0 0 0 0 0 0 0 0 0 0
0 0 0 0 0 0 0 0 0 0 0 0 0 0 0 0 0 0 0 0 0 0 0 0 0 0 0 0 0 0 0 0 0 0 0 0 0 0
0 0 0 0 0 0 0 0 0 0 0 0 0 0 0 0 0 0 0 0 0 0 0 0 0 0 0 0 0 0 0 0 0 0 0 0 0 0
0 0 0 0 0 0 0 0 0 0 0 0 0 0 0 0 0 0 0 0 0 0 0 0 0 0 0 0 0 0 0 0 0 0 0 0 0 0
0 0 0 0 0 0 0 0 0 0 0 0 0 0 0 0 0 0 0 0 0 0 0 0 0 0 0 0 0 0 0 0 0 0 0 0 0 0
0 0 0 0 0 0 0 0 0 0 0 0 0 0 0 0 0 0 0 0 0 0 0 0 0 0 0 0 0 0 0 0 0 0 0 0 0 0
0 0 0 0 0 0 0 0 0 0 0 0 0 0 0 0 0 0 0 0 0 0 0 0 0 0 0 0 0 0 0 0 0 0 0 0 0 0
0 0 0 0 0 0 0 0 0 0 0 0 0 0 0 0 0 0 0 0 0 0 0 0 0 0 0 0 0 0 0 0 0 0 0 0 0 0

GFSNE_con_mucape_105.txt.gz
CAPE
38 52 45 37 33 42 39 36 33 0 0 0 0 0 1 8 7 14 28 27 22 26 25 13 15 8 1 5 12 14 9 19 19 33 5 97 126 191
36 43 31 46 17 14 7 46 44 39 19 0 0 0 0 0 5 26 49 12 37 38 23 16 8 3 2 16 12 17 12 15 21 7 1 8 10 5
0 29 22 15 49 15 40 37 44 43 33 6 0 0 0 6 9 2 8 7 3 4 13 15 6 16 14 7 0 5 16 16 11 5 7 1 0 3
0 28 2 17 9 14 37 35 31 29 39 18 0 16 44 54 14 20 18 10 0 1 3 0 0 5 11 2 5 6 6 5 5 10 9 6 3 3
13 13 5 3 0 3 36 29 13 9 16 28 47 46 52 34 57 18 3 4 1 15 12 4 2 4 6 7 2 0 0 0 5 4 4 4 2 0
4 10 7 11 8 9 6 0 0 3 12 18 52 44 40 36 19 12 2 5 0 2 1 0 1 6 4 0 0 0 0 0 0 0 1 0 0 0
0 1 4 2 3 0 0 0 6 57 28 36 34 51 34 17 0 1 0 0 0 0 0 0 0 0 0 0 0 0 0 0 0 0 0 0 0 0
0 0 0 0 0 0 4 7 40 43 59 26 9 26 2 11 0 4 1 3 0 0 0 0 0 0 0 0 0 0 0 0 0 0 0 0 0 0
2 0 1 5 7 4 5 12 8 22 2 4 21 9 4 8 1 1 0 0 0 0 0 0 0 0 0 0 0 0 0 0 0 0 0 0 0 0
6 7 20 36 12 4 9 6 3 4 12 6 0 6 1 3 0 0 0 0 0 0 0 0 0 0 0 0 0 0 0 0 0 0 0 0 0 0
39 22 40 15 13 5 2 8 2 1 1 2 2 0 0 0 0 0 0 0 0 0 0 0 0 0 0 0 0 0 0 0 0 0 0 0 0 0
61 25 13 8 8 12 8 4 0 5 0 0 0 0 0 0 0 0 0 0 0 0 0 0 0 0 0 0 0 0 0 0 0 0 0 0 0 0
45 26 27 28 23 3 0 0 0 0 0 0 0 0 0 0 0 0 0 0 0 0 0 0 0 0 0 0 0 0 0 0 0 0 0 0 0 0
25 33 19 12 0 0 0 0 0 0 0 0 0 0 0 0 0 0 0 0 0 0 0 0 0 0 0 0 0 0 0 0 0 0 0 0 0 0
0 4 0 0 0 0 0 0 0 0 0 0 0 0 0 0 0 0 0 0 0 0 0 0 0 0 0 0 0 0 0 0 0 0 0 0 0 0
0 0 0 0 0 0 0 0 0 0 0 0 0 0 0 0 0 0 0 0 0 0 0 0 0 0 0 0 0 0 0 0 0 0 0 0 0 0
0 0 0 0 0 0 0 0 0 0 0 0 0 0 0 0 0 0 0 0 0 0 0 0 0 0 0 0 0 0 0 0 0 0 0 0 0 0
0 0 0 0 0 0 0 0 0 0 0 0 0 0 0 0 0 0 0 0 0 0 0 0 0 0 0 0 0 0 0 0 0 0 0 0 0 0
0 0 0 0 0 0 0 0 0 0 0 0 0 0 0 0 0 0 0 0 0 0 0 0 0 0 0 0 0 0 0 0 0 0 0 0 0 0
0 0 0 0 0 0 0 0 0 0 0 0 0 0 0 0 0 0 0 0 0 0 0 0 0 0 0 0 0 0 0 0 0 0 0 0 0 0
0 0 0 0 0 0 0 0 0 0 0 0 0 0 0 0 0 0 0 0 0 0 0 0 0 0 0 0 0 0 0 0 0 0 0 0 0 0
0 0 0 0 0 0 0 0 0 0 0 0 0 0 0 0 0 0 0 0 0 0 0 0 0 0 0 0 0 0 0 0 0 0 0 0 0 0
0 0 0 0 0 0 0 0 0 0 0 0 0 0 0 0 0 0 0 0 0 0 0 0 0 0 0 0 0 0 0 0 0 0 0 0 0 0

GFSNE_con_mucape_108.txt.gz
CAPE
28 5 12 43 32 43 50 41 21 0 2 0 13 8 23 22 11 6 4 4 7 22 36 16 22 16 5 0 0 3 7 4 13 6 9 8 4 8
22 42 46 48 58 48 42 12 3 29 24 10 0 12 13 7 5 2 7 13 11 10 5 1 9 9 22 26 7 1 3 12 9 0 0 3 8 9
0 7 0 0 40 38 26 3 3 24 25 4 9 6 0 6 8 0 5 21 11 10 24 23 18 1 2 6 6 5 7 13 7 12 9 6 10 7
17 0 0 1 31 38 5 9 0 1 31 14 12 6 11 42 16 19 48 11 18 18 9 3 0 6 3 6 15 4 0 10 6 3 0 0 0 0
5 17 3 0 0 27 18 1 10 2 46 35 12 3 21 9 11 39 19 28 3 7 3 0 3 2 7 5 0 2 7 0 0 0 0 0 0 0
11 2 0 1 12 19 14 6 7 24 13 13 0 4 8 29 15 37 5 3 13 2 0 0 0 1 1 0 0 2 0 0 0 0 0 0 0 0
8 8 2 25 18 10 2 1 8 9 16 4 7 30 30 28 43 36 4 1 0 1 3 0 1 0 0 0 0 0 0 0 0 0 0 0 0 0
0 0 0 0 0 1 3 12 14 6 1 41 1 14 12 43 14 21 3 0 0 4 0 0 0 0 0 0 0 0 0 0 0 0 0 0 0 0
0 0 0 0 0 0 0 0 0 21 14 9 7 29 26 2 2 13 5 0 0 0 0 0 0 0 0 0 0 0 0 0 0 0 0 0 0 0
6 6 8 6 7 3 2 0 2 4 12 16 19 22 0 3 0 0 0 0 0 0 0 0 0 0 0 0 0 0 0 0 0 0 0 0 0 0
10 9 3 1 3 3 5 2 7 8 8 7 5 8 0 0 0 0 0 0 0 0 0 0 0 0 0 0 0 0 0 0 0 0 0 0 0 0
7 10 12 15 15 5 11 12 4 7 9 9 0 0 0 0 0 0 0 0 0 0 0 0 0 0 0 0 0 0 0 0 0 0 0 0 0 0
39 37 27 11 20 12 9 6 4 0 0 0 0 0 0 0 0 0 0 0 0 0 0 0 0 0 0 0 0 0 0 0 0 0 0 0 0 0
25 8 8 9 7 15 1 0 0 0 0 0 0 0 0 0 0 0 0 0 0 0 0 0 0 0 0 0 0 0 0 0 0 0 0 0 0 0
1 1 0 0 0 0 0 0 0 0 0 0 0 0 0 0 0 0 0 0 0 0 0 0 0 0 0 0 0 0 0 0 0 0 0 0 0 0
0 0 0 0 0 0 0 0 0 0 0 0 0 0 0 0 0 0 0 0 0 0 0 0 0 0 0 0 0 0 0 0 0 0 0 0 0 0
0 0 0 0 0 0 0 0 0 0 0 0 0 0 0 0 0 0 0 0 0 0 0 0 0 0 0 0 0 0 0 0 0 0 0 0 0 0
0 0 0 0 0 0 0 0 0 0 0 0 0 0 0 0 0 0 0 0 0 0 0 0 0 0 0 0 0 0 0 0 0 0 0 0 0 0
0 0 0 0 0 0 0 0 0 0 0 0 0 0 0 0 0 0 0 0 0 0 0 0 0 0 0 0 0 0 0 0 0 0 0 0 0 0
0 0 0 0 0 0 0 0 0 0 0 0 0 0 0 0 0 0 0 0 0 0 0 0 0 0 0 0 0 0 0 0 0 0 0 0 0 0
0 0 0 0 0 0 0 0 0 0 0 0 0 0 0 0 0 0 0 0 0 0 0 0 0 0 0 0 0 0 0 0 0 0 0 0 0 0
0 0 0 0 0 0 0 0 0 0 0 0 0 0 0 0 0 0 0 0 0 0 0 0 0 0 0 0 0 0 0 0 0 0 0 0 0 0
0 0 0 0 0 0 0 0 0 0 0 0 0 0 0 0 0 0 0 0 0 0 0 0 0 0 0 0 0 0 0 0 0 0 0 0 0 0

GFSNE_con_mucape_114.txt.gz
CAPE
202 274 153 110 203 126 137 145 144 119 97 73 144 37 1 7 7 11 6 3 5 4 13 20 12 9 12 1 12 9 7 14 7 3 0 0 0 0
16 14 20 65 126 175 205 182 146 125 113 54 48 21 4 23 14 5 16 15 6 4 5 6 8 5 1 14 7 3 15 3 1 0 0 0 1 0
0 35 85 70 124 153 207 217 150 109 114 101 77 20 12 1 1 10 18 56 7 10 1 0 0 1 1 14 0 1 1 0 0 0 0 0 1 3
28 22 38 48 112 133 170 164 177 140 110 94 40 15 24 0 1 1 3 0 2 1 0 0 0 0 0 0 5 8 10 6 0 0 0 0 1 5
0 0 3 7 84 87 104 79 70 27 20 0 36 21 0 0 11 0 1 0 1 8 3 0 0 1 1 8 6 4 3 6 5 4 3 0 0 0
2 0 0 0 0 36 17 0 0 0 0 0 1 1 0 13 0 0 0 2 2 4 6 2 3 2 4 3 1 0 0 0 0 0 0 0 0 0
2 0 0 1 1 0 1 0 0 0 0 0 0 0 0 0 0 0 3 5 7 7 1 4 3 1 1 7 1 0 0 0 0 0 0 0 0 0
0 3 0 0 0 0 0 0 1 3 2 0 0 0 0 0 0 1 0 1 2 3 1 0 7 4 1 0 0 0 0 0 0 0 0 0 0 0
22 8 8 1 1 4 0 0 7 1 1 4 1 0 0 0 0 0 0 0 0 0 4 0 0 0 0 0 0 0 0 0 0 0 0 0 0 0
8 6 0 4 10 14 14 10 5 6 5 2 0 0 0 2 5 5 5 0 0 0 0 0 0 0 0 0 0 0 0 0 0 0 0 0 0 0
0 8 5 4 3 2 8 8 6 3 10 9 13 16 14 7 4 3 0 0 0 0 0 0 0 0 0 0 0 0 0 0 0 0 0 0 0 0
12 5 7 5 7 7 5 5 5 6 8 5 15 8 4 5 0 0 0 0 0 0 0 0 0 0 0 0 0 0 0 0 0 0 0 0 0 0
2 3 2 1 7 7 15 21 15 14 17 14 5 0 2 0 0 0 0 0 0 0 0 0 0 0 0 0 0 0 0 0 0 0 0 0 0 0
12 14 15 11 16 8 6 5 5 3 0 0 0 0 0 0 0 0 0 0 0 0 0 0 0 0 0 0 0 0 0 0 0 0 0 0 0 0
4 3 4 4 2 2 0 0 0 0 0 0 0 0 0 0 0 0 0 0 0 0 0 0 0 0 0 0 0 0 0 0 0 0 0 0 0 0
24 18 0 0 0 1 0 0 0 0 0 0 0 0 0 0 0 0 0 0 0 0 0 0 0 0 0 0 0 0 0 0 0 0 0 0 0 0
6 0 7 0 1 0 0 0 0 0 0 0 0 0 0 0 0 0 0 0 0 0 0 0 0 0 0 0 0 0 0 0 0 0 0 0 0 0
0 0 1 0 0 0 0 0 0 0 0 0 0 0 0 0 0 0 0 0 0 0 0 0 0 0 0 0 0 0 0 0 0 0 0 0 0 0
4 0 0 0 0 0 0 0 0 0 0 0 0 0 0 0 0 0 0 0 0 0 0 0 0 0 0 0 0 0 0 0 0 0 0 0 0 0
0 0 0 0 0 0 0 0 0 0 0 0 0 0 0 0 0 0 0 0 0 0 0 0 0 0 0 0 0 0 0 0 0 0 0 0 0 1
0 0 0 0 0 0 0 0 0 0 0 0 0 0 0 0 0 0 0 0 0 0 0 0 0 0 0 0 0 0 0 0 0 0 0 0 0 0
0 0 0 0 0 0 0 0 0 0 0 0 0 0 0 0 0 0 0 0 0 0 0 0 0 0 0 0 0 0 0 0 0 0 0 0 0 0
0 0 0 0 0 0 0 0 0 0 0 0 0 0 0 0 0 0 0 0 0 0 0 0 0 0 0 0 0 0 0 0 0 0 0 0 0 0

GFSNE_con_mucape_117.txt.gz
CAPE
39 49 82 218 295 224 173 250 67 111 137 167 106 98 53 0 0 4 8 0 13 12 22 12 5 1 2 16 16 4 4 3 7 8 0 0 0 0
60 75 88 199 208 325 322 183 243 180 131 126 128 4 1 5 2 6 9 2 2 4 10 19 11 6 9 3 0 0 0 0 8 1 6 8 7 2
18 84 120 135 137 184 230 166 180 178 150 119 15 13 2 10 12 9 7 3 0 3 21 10 10 2 0 0 0 0 1 2 5 3 6 4 8 10
0 70 136 116 205 149 127 155 174 120 135 100 26 10 0 1 1 11 9 0 0 0 5 6 2 1 5 4 1 0 5 2 1 6 5 2 1 0
15 120 81 113 115 136 116 109 140 94 117 79 30 25 0 0 0 0 8 2 1 2 0 1 0 1 2 4 0 1 2 3 1 3 0 0 0 0
77 60 47 38 9 17 17 89 103 93 46 6 0 0 0 0 0 0 3 0 5 2 0 6 0 2 5 4 10 2 1 0 1 0 0 0 0 0
2 0 3 0 0 23 12 3 12 0 0 0 0 0 0 0 9 6 4 0 0 0 3 3 5 8 2 2 0 0 0 0 0 0 0 0 0 0
0 0 0 0 0 0 0 2 2 0 1 5 1 0 0 0 0 0 0 5 4 1 0 3 3 6 8 8 0 0 0 0 0 0 0 0 0 0
0 0 7 3 4 9 3 7 3 4 1 3 8 0 2 3 0 0 0 1 4 0 1 3 7 2 0 0 0 0 0 0 0 0 0 0 0 0
1 2 17 17 13 15 3 0 1 3 6 3 3 1 1 9 3 3 0 1 1 3 8 5 0 0 0 0 0 0 0 0 0 0 0 0 0 0
0 2 3 4 14 4 0 2 3 3 0 1 8 8 5 6 5 2 2 7 5 3 0 0 0 0 0 0 0 0 0 0 0 0 0 0 0 0
5 0 0 2 5 2 3 2 1 1 9 10 6 13 10 4 4 5 1 10 0 0 0 0 0 0 0 0 0 0 0 0 0 0 0 0 0 0
5 7 2 22 6 1 8 5 7 12 3 4 4 5 2 3 2 0 0 0 0 0 0 0 0 0 0 0 0 0 0 0 0 0 0 0 0 0
9 10 9 13 13 19 15 10 13 17 9 3 2 0 0 0 0 0 0 0 0 0 0 0 0 0 0 0 0 0 0 0 0 0 0 0 0 0
10 9 8 7 7 11 18 18 11 5 1 0 0 0 0 0 0 0 0 0 0 0 0 0 0 0 0 0 0 0 0 0 0 0 0 0 0 0
4 0 4 1 0 0 0 0 0 0 0 0 0 0 0 0 0 0 0 0 0 0 0 0 0 0 0 0 0 0 0 0 0 0 0 0 0 0
0 1 3 2 0 0 0 0 0 0 0 0 0 0 0 0 0 0 0 0 0 0 0 0 0 0 0 0 0 0 0 0 0 0 0 0 0 0
0 8 0 0 0 0 0 0 0 0 0 0 0 0 0 0 0 0 0 0 0 0 0 0 0 0 0 0 0 0 0 0 0 0 0 0 0 0
0 0 0 0 0 0 0 0 0 0 0 0 0 0 0 0 0 0 0 0 0 0 0 0 0 0 0 0 0 0 0 0 0 0 0 0 0 0
0 0 0 0 0 0 0 0 0 0 0 0 0 0 0 0 0 0 0 0 0 0 0 0 0 0 0 0 0 0 0 0 0 0 0 0 0 0
0 0 0 0 0 0 0 0 0 0 0 0 0 0 0 0 0 0 0 0 0 0 0 0 0 0 0 0 0 0 0 0 0 0 0 0 0 0
0 0 0 0 0 0 0 0 0 0 0 0 0 0 0 0 0 0 0 0 0 0 0 0 0 0 0 0 0 0 0 0 0 0 0 0 0 0
0 0 0 0 0 0 0 0 0 0 0 0 0 0 0 0 0 0 0 0 0 0 0 0 0 0 0 0 0 0 0 0 0 0 0 0 0 0

GFSNE_con_mucape_123.txt.gz
CAPE
30 1 17 7 21 47 34 24 4 0 6 25 14 17 16 7 24 23 37 70 46 7 0 0 10 9 6 5 12 15 26 26 18 10 8 21 10 13
14 21 14 13 42 61 54 42 35 13 18 25 12 18 43 39 64 91 108 77 21 7 5 16 11 15 5 2 7 13 9 6 7 9 14 9 6 1
14 21 14 4 42 50 45 62 46 44 27 29 32 56 60 59 68 118 122 59 22 17 11 5 16 16 1 5 5 11 9 8 5 16 7 2 3 10
2 10 15 5 0 38 36 61 46 27 44 56 61 52 75 78 115 130 106 49 24 14 3 12 10 1 6 3 1 5 9 3 5 10 7 3 5 0
7 19 35 11 0 2 37 39 63 20 35 39 45 66 66 93 99 92 85 46 27 11 5 3 0 2 3 6 7 3 5 3 3 2 9 0 0 6
45 48 40 35 7 25 14 1 27 30 44 48 49 43 69 83 75 63 23 9 5 1 1 4 5 5 4 8 8 3 3 5 5 3 4 0 0 0
47 25 7 10 12 13 15 0 0 0 33 40 52 46 44 39 32 16 0 0 0 1 4 3 1 4 6 4 1 4 6 7 7 0 0 0 0 0
45 0 37 41 39 11 19 0 33 0 0 0 32 20 17 14 0 0 0 3 7 1 4 0 5 1 5 9 13 9 8 0 0 0 0 0 0 0
0 7 14 18 18 0 62 5 19 0 18 14 6 22 4 4 0 0 9 13 11 11 1 0 2 4 8 10 7 0 0 0 0 0 0 0 0 0
0 1 5 17 31 17 4 15 0 0 0 0 15 22 5 1 0 1 1 13 17 9 2 7 0 10 0 0 0 0 0 0 0 0 0 0 0 0
0 3 0 6 0 0 0 0 0 0 0 1 1 1 7 5 9 1 0 5 45 5 1 0 0 3 2 0 0 0 0 0 0 0 0 0 0 0
15 22 9 3 5 10 1 15 7 9 32 20 17 4 5 2 4 5 13 12 3 0 2 0 0 0 0 0 0 0 0 0 0 0 0 0 0 0
6 19 26 18 13 17 13 8 9 20 19 8 16 0 13 3 2 6 7 1 0 0 0 0 0 0 0 0 0 0 0 0 0 0 0 0 0 0
6 9 8 19 20 17 14 20 9 9 6 17 5 12 5 0 3 2 1 0 0 0 0 0 0 0 0 0 0 0 0 0 0 0 0 0 0 0
5 5 7 2 19 13 14 23 24 1 1 1 2 0 9 1 0 0 0 0 0 0 0 0 0 0 0 0 0 0 0 0 0 0 0 0 0 0
0 9 12 13 18 19 7 11 10 10 3 0 0 0 0 0 0 0 0 0 0 0 0 0 0 0 0 0 0 0 0 0 0 0 0 0 0 0
0 0 0 0 0 0 1 0 0 0 0 0 0 0 0 0 0 0 0 0 0 0 0 0 0 0 0 0 0 0 0 0 0 0 0 0 0 0
0 0 0 2 0 3 0 6 2 5 1 0 0 0 0 0 0 0 0 0 0 0 0 0 0 0 0 0 0 0 0 0 0 0 0 0 0 0
2 14 3 0 0 0 0 0 0 0 0 0 0 0 0 0 0 0 0 0 0 0 0 0 0 0 0 0 0 0 0 0 0 0 0 0 0 0
23 18 1 0 0 0 0 3 0 0 0 0 0 0 0 0 0 0 0 0 0 0 0 0 0 0 0 0 0 0 0 0 0 0 0 0 0 0
0 0 0 0 0 0 0 0 0 0 0 0 0 0 0 0 0 0 0 0 0 0 0 0 0 0 0 0 0 0 0 0 0 0 0 0 0 0
0 0 0 0 0 0 0 0 0 0 0 0 0 0 0 0 0 0 0 0 0 0 0 0 0 0 0 0 0 0 0 0 0 0 0 0 0 0
0 0 0 0 0 0 0 0 0 0 0 0 0 0 0 0 0 0 0 0 0 0 0 0 0 0 0 0 0 0 0 0 0 0 0 0 0 0

GFSNE_con_mucape_126.txt.gz
CAPE
34 54 59 78 60 17 18 13 0 0 0 1 21 26 7 2 9 3 6 10 25 64 91 50 15 5 7 4 8 8 0 7 13 7 12 18 15 8
58 41 61 48 51 30 24 15 0 0 0 0 4 3 8 20 16 8 20 24 76 107 76 26 14 26 6 17 7 11 0 10 9 8 9 22 7 13
61 51 22 9 7 28 10 9 24 27 21 1 10 20 20 35 44 49 61 70 80 108 65 23 7 13 4 2 1 0 7 3 4 3 8 16 4 3
36 52 44 29 1 11 26 12 0 35 25 32 29 33 35 40 60 57 61 72 88 80 55 20 19 14 8 0 1 1 2 7 1 5 7 12 3 7
22 8 23 6 2 12 31 7 2 37 50 0 0 14 43 38 34 85 74 63 82 121 35 29 27 0 2 1 6 3 12 2 1 4 2 4 10 13
15 10 5 11 8 22 1 7 19 28 15 28 32 10 30 41 65 69 50 86 63 9 10 8 1 5 1 1 2 3 8 4 4 3 1 14 12 4
12 10 2 44 55 46 37 3 0 1 10 28 0 0 0 43 53 48 67 63 22 10 0 0 0 0 1 5 5 3 5 5 1 3 7 6 0 0
0 0 1 45 25 35 24 1 0 0 0 0 2 0 32 68 69 82 74 64 0 0 0 0 2 4 2 3 5 3 1 8 9 0 0 0 0 0
0 1 0 0 12 28 38 30 15 23 11 23 0 5 72 72 80 75 59 0 0 0 0 5 9 7 3 3 3 3 1 0 0 0 0 0 0 0
0 12 1 1 25 0 1 34 0 0 32 0 0 19 40 35 23 38 3 9 1 1 0 0 4 9 4 2 11 8 0 0 0 0 0 0 0 0
5 0 0 6 0 3 7 0 0 0 15 12 3 4 5 1 28 0 0 0 4 0 7 1 2 0 0 0 0 0 0 0 0 0 0 0 0 0
24 6 0 5 4 1 13 0 0 0 3 4 0 0 1 1 1 1 1 0 0 0 0 0 0 0 0 0 0 0 0 0 0 0 0 0 0 0
11 8 7 12 2 1 0 0 12 0 0 1 2 0 7 7 2 1 2 8 1 0 0 0 0 0 0 0 0 0 0 0 0 0 0 0 0 0
15 13 27 18 10 12 6 19 13 2 4 1 1 14 10 0 0 5 3 2 0 0 0 0 0 0 0 0 0 0 0 0 0 0 0 0 0 0
8 14 18 16 12 15 9 7 2 5 4 20 12 0 0 0 1 1 0 0 0 0 0 0 0 0 0 0 0 0 0 0 0 0 0 0 0 0
12 19 11 7 6 15 21 5 1 1 2 4 0 0 0 0 0 0 0 0 0 0 0 0 0 0 0 0 0 0 0 0 0 0 0 0 0 0
15 1 3 6 0 0 2 4 6 0 0 0 0 0 0 0 0 0 0 0 0 0 0 0 0 0 0 0 0 0 0 0 0 0 0 0 0 0
8 0 0 0 0 0 0 0 0 0 0 0 6 4 0 0 0 0 0 0 0 0 0 0 0 0 0 0 0 0 0 0 0 0 0 0 0 0
0 0 0 3 8 15 0 5 0 0 0 0 0 0 0 0 0 0 0 0 0 0 0 0 0 0 0 0 0 0 0 0 0 0 0 0 0 0
0 0 9 1 0 4 0 3 2 0 0 0 0 0 0 0 0 0 0 0 0 0 0 0 0 0 0 0 0 0 0 0 0 0 0 0 0 0
0 0 0 0 0 0 0 0 0 0 0 0 0 0 0 0 0 0 0 0 0 0 0 0 0 0 0 0 0 0 0 0 0 0 0 0 0 0
0 0 0 0 0 0 0 0 0 0 0 0 0 0 0 0 0 0 0 0 0 0 0 0 0 0 0 0 0 0 0 0 0 0 0 0 0 0
0 0 0 0 0 0 0 0 0 0 0 0 0 0 0 0 0 0 0 0 0 0 0 0 0 0 0 0 0 0 0 0 0 0 0 0 0 0

GFSNE_con_mucape_132.txt.gz
CAPE
233 25 60 88 57 45 52 60 70 33 16 19 15 21 19 5 3 27 8 4 8 0 0 0 0 0 0 7 1 0 5 2 9 6 12 5 0 1
331 54 28 53 85 48 45 51 39 60 36 0 2 12 17 4 32 63 42 24 41 29 4 5 10 3 2 2 2 25 24 8 19 9 3 1 1 6
151 38 63 44 35 21 35 32 37 31 41 19 44 20 21 0 19 72 66 65 65 72 64 60 59 44 61 69 59 44 33 19 5 2 2 2 3 6
43 39 63 58 27 45 57 38 21 17 32 0 3 4 18 0 10 66 85 73 88 93 79 71 80 94 103 80 61 46 15 4 8 5 1 2 3 3
13 39 62 52 9 12 7 17 21 1 20 21 20 4 0 8 0 23 71 81 71 88 81 78 84 91 71 80 69 38 1 17 10 2 1 2 4 5
22 17 40 47 34 31 22 25 17 43 3 11 2 9 0 0 0 0 30 78 81 85 61 57 69 76 75 99 35 25 6 9 2 1 1 5 3 1
5 6 3 5 7 3 6 19 23 18 2 11 41 13 0 0 0 0 3 73 69 73 62 60 62 36 53 11 26 27 1 3 4 5 10 0 0 1
4 0 0 0 0 0 0 0 22 19 2 2 4 0 14 0 0 0 0 0 0 12 27 61 40 38 37 12 12 1 1 0 6 11 1 5 4 0
0 4 0 0 0 0 0 2 1 11 2 14 0 17 0 0 0 28 0 0 0 0 25 0 5 8 29 8 1 1 2 3 6 1 1 1 0 0
3 8 0 0 0 0 0 0 1 0 2 16 0 19 1 4 7 11 33 37 0 0 2 17 5 0 6 1 1 1 4 3 3 1 0 0 0 0
11 3 0 0 0 0 0 0 0 0 1 5 19 15 26 15 30 4 6 0 0 0 1 59 0 0 0 0 1 0 0 1 0 0 0 0 0 0
0 5 5 15 2 2 1 0 0 0 5 2 9 9 0 28 24 1 21 0 0 0 0 0 0 0 0 0 0 1 0 0 0 0 0 0 0 0
10 8 9 15 13 2 5 0 2 0 0 0 0 10 23 0 20 1 0 0 0 0 0 0 0 0 0 0 0 0 0 0 0 0 0 0 0 0
33 5 9 6 8 11 12 8 6 1 0 0 0 0 1 0 0 0 1 1 1 0 1 0 0 0 0 0 0 0 0 0 0 0 0 0 0 0
17 14 8 22 7 3 0 7 4 1 0 0 0 0 0 0 0 0 1 13 1 1 1 1 0 0 0 0 0 0 0 0 0 0 0 0 0 0
17 20 12 17 14 10 4 23 10 0 0 1 3 1 0 0 2 0 0 0 1 0 0 0 0 0 0 0 0 0 0 0 0 0 0 0 0 0
2 4 2 20 7 19 11 16 12 5 2 10 16 2 11 3 2 0 0 0 0 0 0 0 0 0 0 0 0 0 0 0 0 0 0 0 0 0
0 0 0 0 0 8 13 12 17 5 4 8 0 0 0 0 0 0 0 0 1 0 0 0 0 0 0 0 0 0 0 0 0 0 0 0 0 0
0 0 0 0 0 0 0 9 1 0 0 0 0 0 0 0 0 0 0 0 0 0 0 0 0 0 0 0 0 0 0 0 0 0 0 0 0 0
0 0 0 0 0 0 0 0 0 0 0 0 0 0 0 0 0 0 0 0 0 0 0 0 0 0 0 0 0 0 0 0 0 0 0 0 0 0
0 3 0 0 0 0 0 0 0 0 0 0 0 0 0 0 0 0 0 0 0 0 0 0 0 0 0 0 0 0 0 0 0 0 0 0 0 0
0 0 0 0 0 0 0 0 0 0 0 0 0 0 0 0 0 0 0 0 0 0 0 0 0 0 0 0 0 0 0 0 0 0 0 0 0 0
0 0 0 0 0 0 0 0 0 0 0 0 0 0 0 0 0 0 0 0 0 0 0 0 0 0 0 0 0 0 0 0 0 0 0 0 0 0